K6MBY Weather Reports


time (UTC)temp
C
wind
direction
speed
KPH
gust
KPH
rain 1hr
cm
rain 24hr
cm
rain mn
cm
humidity
%
barometer
mb
20260505093024 10 260 3.2 8.0 0.00 0.00 0.00 95 1015.9
20260505092521 10 276 6.4 8.0 0.00 0.00 0.00 95 1015.9
20260505092020 10 249 0.0 3.2 0.00 0.00 0.00 95 1016.0
20260505091516 10 257 3.2 11.3 0.00 0.00 0.00 95 1016.0
20260505091014 10 253 8.0 9.7 0.00 0.00 0.00 95 1015.7
20260505090512 10 234 4.8 9.7 0.00 0.00 0.00 95 1015.7
20260505090010 10 291 8.0 12.9 0.00 0.00 0.00 95 1015.8
20260505085508 10 315 4.8 12.9 0.00 0.00 0.00 95 1015.7
20260505085006 10 273 8.0 17.7 0.00 0.00 0.00 95 1015.8
20260505084504 10 282 8.0 16.1 0.00 0.00 0.00 95 1015.5
20260505084001 10 305 9.7 12.9 0.00 0.00 0.00 95 1015.8
20260505083458 10 296 8.0 11.3 0.00 0.00 0.00 95 1015.7
20260505082954 10 286 4.8 9.7 0.00 0.00 0.00 95 1015.7
20260505082450 10 260 6.4 9.7 0.00 0.00 0.00 95 1015.6
20260505081947 10 260 6.4 9.7 0.00 0.00 0.00 95 1015.6
20260505081444 10 308 9.7 12.9 0.00 0.00 0.00 95 1015.6
20260505080940 10 287 8.0 14.5 0.00 0.00 0.00 95 1015.5
20260505080437 10 273 6.4 16.1 0.00 0.00 0.00 95 1015.6
20260505075932 10 274 6.4 11.3 0.00 0.00 0.00 95 1015.5
20260505075429 10 261 4.8 14.5 0.00 0.00 0.00 95 1015.6
20260505074927 10 277 8.0 14.5 0.00 0.00 0.00 95 1015.2
20260505074424 10 287 9.7 17.7 0.00 0.00 0.00 95 1015.4
20260505073921 10 243 4.8 12.9 0.00 0.00 0.00 95 1015.2
20260505073419 10 269 6.4 11.3 0.00 0.00 0.00 95 1015.2
20260505072916 10 283 8.0 11.3 0.00 0.00 0.00 95 1015.3
20260505072411 10 293 6.4 12.9 0.00 0.00 0.00 95 1015.1
20260505071908 10 264 8.0 16.1 0.00 0.00 0.00 95 1015.1
20260505071404 10 295 12.9 17.7 0.00 0.00 0.00 95 1015.2
20260505070902 10 294 8.0 20.9 0.00 0.00 0.00 95 1015.1
20260505070358 10 280 6.4 12.9 0.00 0.00 0.00 95 1015.0
20260505065854 10 293 9.7 22.5 0.00 0.00 0.00 95 1014.8
20260505065351 10 209 11.3 17.7 0.00 0.00 0.00 95 1014.9
20260505064848 10 282 8.0 16.1 0.00 0.00 0.00 95 1014.8
20260505064345 10 310 11.3 27.4 0.00 0.00 0.00 95 1014.8
20260505063843 10 288 9.7 32.2 0.00 0.00 0.00 94 1014.6
20260505063339 10 286 14.5 32.2 0.00 0.00 0.00 95 1014.7
20260505062836 10 281 22.5 35.4 0.00 0.00 0.00 94 1014.6
20260505062333 10 299 11.3 17.7 0.00 0.00 0.00 94 1014.7
20260505061830 10 264 8.0 12.9 0.00 0.00 0.00 94 1014.7
20260505061328 10 283 11.3 17.7 0.00 0.00 0.00 94 1014.5
20260505060825 10 263 4.8 32.2 0.00 0.00 0.00 94 1014.5
20260505060322 10 251 12.9 20.9 0.00 0.00 0.00 94 1014.4
20260505055818 10 315 11.3 17.7 0.00 0.00 0.00 94 1014.3
20260505055314 10 304 11.3 22.5 0.00 0.00 0.00 94 1014.2
20260505054812 10 280 8.0 24.1 0.00 0.00 0.00 94 1014.2
20260505054308 10 284 11.3 27.4 0.00 0.00 0.00 95 1014.0
20260505053807 10 198 12.9 24.1 0.00 0.00 0.00 95 1014.0
20260505053303 10 234 8.0 14.5 0.00 0.00 0.00 95 1014.0
20260505052800 10 246 8.0 25.7 0.00 0.00 0.00 95 1014.1
20260505052257 10 272 19.3 24.1 0.00 0.00 0.00 94 1013.9
20260505051754 10 275 6.4 14.5 0.00 0.00 0.00 94 1014.0
20260505051252 10 272 8.0 20.9 0.00 0.00 0.00 94 1013.9
20260505050750 10 226 9.7 24.1 0.00 0.00 0.00 94 1013.7
20260505050248 10 229 12.9 29.0 0.00 0.00 0.00 93 1013.6
20260505041718 11 288 14.5 25.7 0.00 0.00 0.00 90 1013.5
20260505041215 11 202 11.3 24.1 0.00 0.00 0.00 90 1013.3
20260505040712 11 321 14.5 25.7 0.00 0.00 0.00 89 1013.2
20260505040209 11 271 17.7 25.7 0.00 0.00 0.00 89 1013.5
20260505035706 11 250 19.3 25.7 0.00 0.00 0.00 88 1013.3
20260505035202 11 296 16.1 27.4 0.00 0.00 0.00 88 1013.0
20260505034659 11 300 12.9 24.1 0.00 0.00 0.00 88 1013.1
20260505034156 11 260 16.1 24.1 0.00 0.00 0.00 87 1013.0
20260505033652 11 269 11.3 17.7 0.00 0.00 0.00 87 1013.1
20260505033151 12 322 12.9 24.1 0.00 0.00 0.00 86 1012.9
20260505032648 12 290 9.7 22.5 0.00 0.00 0.00 84 1013.1
20260505032144 12 262 14.5 25.7 0.00 0.00 0.00 83 1012.9
20260505031642 12 261 14.5 22.5 0.00 0.00 0.00 82 1013.0
20260505031138 12 291 11.3 25.7 0.00 0.00 0.00 82 1013.0
20260505030635 12 304 12.9 22.5 0.00 0.00 0.00 82 1013.0
20260505030130 12 294 11.3 14.5 0.00 0.00 0.00 82 1013.1
20260505025627 12 271 14.5 24.1 0.00 0.00 0.00 81 1013.1
20260505025126 12 317 11.3 32.2 0.00 0.00 0.00 81 1012.9
20260505024622 12 262 11.3 22.5 0.00 0.00 0.00 80 1012.9
20260505024120 13 285 11.3 24.1 0.00 0.00 0.00 79 1012.8
20260505023617 13 297 9.7 24.1 0.00 0.00 0.00 78 1013.0
20260505023114 13 304 14.5 20.9 0.00 0.00 0.00 78 1012.9
20260505022612 13 270 8.0 25.7 0.00 0.00 0.00 78 1013.0
20260505022108 13 281 12.9 24.1 0.00 0.00 0.00 78 1012.9
20260505021605 13 239 12.9 24.1 0.00 0.00 0.00 76 1012.9
20260505021102 14 278 11.3 22.5 0.00 0.00 0.00 75 1013.0
20260505020602 14 282 11.3 24.1 0.00 0.00 0.00 74 1012.8
20260505020059 15 237 11.3 25.7 0.00 0.00 0.00 73 1013.1
20260505015556 14 283 17.7 22.5 0.00 0.00 0.00 73 1013.1
20260505015053 14 303 11.3 16.1 0.00 0.00 0.00 75 1013.0
20260505014549 14 294 11.3 20.9 0.00 0.00 0.00 73 1013.2
20260505014047 13 273 9.7 22.5 0.00 0.00 0.00 75 1013.2
20260505013544 13 234 14.5 20.9 0.00 0.00 0.00 76 1013.2
20260505013041 14 292 14.5 29.0 0.00 0.00 0.00 76 1013.2
20260505012539 14 286 11.3 24.1 0.00 0.00 0.00 75 1013.2
20260505012036 15 264 9.7 17.7 0.00 0.00 0.00 74 1013.4
20260505011531 15 260 8.0 17.7 0.00 0.00 0.00 73 1013.4
20260505011029 15 275 11.3 16.1 0.00 0.00 0.00 72 1013.3
20260505010524 15 298 19.3 27.4 0.00 0.00 0.00 70 1013.5
20260505010021 15 253 11.3 20.9 0.00 0.00 0.00 70 1013.6
20260505005517 15 235 16.1 22.5 0.00 0.00 0.00 70 1013.3
20260505005015 15 251 12.9 35.4 0.00 0.00 0.00 69 1013.4
20260505004512 15 277 12.9 17.7 0.00 0.00 0.00 72 1013.5
20260505004008 15 239 17.7 22.5 0.00 0.00 0.00 71 1013.5
20260505003505 15 250 16.1 24.1 0.00 0.00 0.00 70 1013.3
20260505003002 16 282 8.0 12.9 0.00 0.00 0.00 67 1013.2
20260505002458 16 278 9.7 20.9 0.00 0.00 0.00 67 1013.4
20260505001956 16 339 16.1 24.1 0.00 0.00 0.00 66 1013.4
20260505001454 16 278 11.3 17.7 0.00 0.00 0.00 69 1013.3
20260505000950 15 242 9.7 14.5 0.00 0.00 0.00 70 1013.4
20260505000448 15 271 8.0 16.1 0.00 0.00 0.00 71 1013.5
20260504235945 15 299 12.9 17.7 0.00 0.00 0.00 72 1013.4
20260504235442 15 288 11.3 17.7 0.00 0.00 0.00 73 1013.6
20260504234939 16 255 6.4 14.5 0.00 0.00 0.00 72 1013.6
20260504234436 15 252 14.5 24.1 0.00 0.00 0.00 72 1013.6
20260504233932 16 301 12.9 22.5 0.00 0.00 0.00 71 1013.3
20260504233428 16 206 4.8 20.9 0.00 0.00 0.00 70 1013.5
20260504232925 17 264 11.3 16.1 0.00 0.00 0.00 68 1013.5
20260504232422 16 299 6.4 17.7 0.00 0.00 0.00 70 1013.5
20260504231919 16 254 16.1 20.9 0.00 0.00 0.00 70 1013.5
20260504231415 15 280 11.3 20.9 0.00 0.00 0.00 72 1013.5
20260504230912 16 287 11.3 16.1 0.00 0.00 0.00 73 1013.8
20260504230409 16 308 6.4 14.5 0.00 0.00 0.00 73 1013.6
20260504225908 16 275 11.3 16.1 0.00 0.00 0.00 71 1013.7
20260504225404 16 302 9.7 17.7 0.00 0.00 0.00 73 1013.8
20260504224902 16 275 11.3 16.1 0.00 0.00 0.00 71 1013.9
20260504224358 16 291 9.7 14.5 0.00 0.00 0.00 71 1014.1
20260504223855 16 261 8.0 12.9 0.00 0.00 0.00 72 1013.9
20260504223351 16 308 8.0 20.9 0.00 0.00 0.00 73 1014.1
20260504222847 17 285 9.7 16.1 0.00 0.00 0.00 70 1013.9
20260504222344 16 298 9.7 22.5 0.00 0.00 0.00 69 1014.1
20260504221843 16 210 6.4 12.9 0.00 0.00 0.00 70 1014.1
20260504221339 17 289 4.8 17.7 0.00 0.00 0.00 70 1013.9
20260504220836 16 220 8.0 17.7 0.00 0.00 0.00 71 1014.0
20260504220333 16 254 6.4 9.7 0.00 0.00 0.00 71 1014.0
20260504215830 16 272 8.0 11.3 0.00 0.00 0.00 71 1014.0
20260504215326 16 221 4.8 16.1 0.00 0.00 0.00 71 1014.2
20260504214822 16 270 9.7 12.9 0.00 0.00 0.00 72 1014.2
20260504214320 16 274 6.4 14.5 0.00 0.00 0.00 70 1014.3
20260504213816 16 317 9.7 16.1 0.00 0.00 0.00 69 1014.3
20260504213312 16 262 9.7 12.9 0.00 0.00 0.00 71 1014.4
20260504212810 16 303 6.4 12.9 0.00 0.00 0.00 70 1014.5
20260504212306 17 286 9.7 14.5 0.00 0.00 0.00 68 1014.4
20260504211804 16 233 3.2 14.5 0.00 0.00 0.00 69 1014.4
20260504211259 17 274 4.8 9.7 0.00 0.00 0.00 65 1014.4
20260504210757 17 257 4.8 9.7 0.00 0.00 0.00 65 1014.4
20260504210254 17 279 8.0 9.7 0.00 0.00 0.00 65 1014.4
20260504205751 17 270 4.8 8.0 0.00 0.00 0.00 65 1014.4
20260504205249 16 288 8.0 11.3 0.00 0.00 0.00 65 1014.3
20260504204747 17 344 9.7 12.9 0.00 0.00 0.00 66 1014.5
20260504204245 17 288 4.8 11.3 0.00 0.00 0.00 66 1014.3
20260504203744 17 267 3.2 8.0 0.00 0.00 0.00 65 1014.3
20260504203241 17 233 6.4 9.7 0.00 0.00 0.00 64 1014.4
20260504202741 17 261 1.6 9.7 0.00 0.00 0.00 65 1014.5
20260504202238 17 263 4.8 4.8 0.00 0.00 0.00 62 1014.3
20260504201735 17 261 4.8 9.7 0.00 0.00 0.00 63 1014.4
20260504201232 17 258 3.2 9.7 0.00 0.00 0.00 64 1014.3
20260504200730 17 293 4.8 11.3 0.00 0.00 0.00 65 1014.3
20260504200226 17 245 4.8 9.7 0.00 0.00 0.00 65 1014.4
20260504195722 17 243 3.2 9.7 0.00 0.00 0.00 64 1014.5
20260504195219 17 306 6.4 12.9 0.00 0.00 0.00 60 1014.5
20260504194716 17 269 3.2 8.0 0.00 0.00 0.00 59 1014.3
20260504194212 18 335 8.0 11.3 0.00 0.00 0.00 60 1014.5
20260504193708 17 312 6.4 9.7 0.00 0.00 0.00 61 1014.5
20260504193206 17 250 4.8 11.3 0.00 0.00 0.00 61 1014.4
20260504192704 17 310 8.0 9.7 0.00 0.00 0.00 58 1014.3
20260504192202 17 296 6.4 11.3 0.00 0.00 0.00 62 1014.5
20260504191700 20 305 9.7 16.1 0.00 0.00 0.00 58 1014.4
20260504191156 20 346 9.7 12.9 0.00 0.00 0.00 57 1014.2
20260504190651 20 354 12.9 16.1 0.00 0.00 0.00 54 1014.2
20260504190149 21 16 11.3 12.9 0.00 0.00 0.00 52 1014.2
20260504185645 21 326 9.7 11.3 0.00 0.00 0.00 52 1014.2
20260504185142 21 349 6.4 11.3 0.00 0.00 0.00 55 1014.2
20260504184638 20 20 9.7 11.3 0.00 0.00 0.00 54 1014.0
20260504184133 20 14 6.4 9.7 0.00 0.00 0.00 54 1014.1
20260504183630 20 10 8.0 9.7 0.00 0.00 0.00 57 1014.1
20260504183128 20 354 9.7 12.9 0.00 0.00 0.00 57 1014.4
20260504182626 20 17 8.0 12.9 0.00 0.00 0.00 56 1014.4
20260504182123 20 0 8.0 11.3 0.00 0.00 0.00 55 1014.1
20260504181620 19 359 8.0 12.9 0.00 0.00 0.00 56 1014.5
20260504181117 20 350 9.7 11.3 0.00 0.00 0.00 55 1014.5
20260504180617 20 19 9.7 11.3 0.00 0.00 0.00 55 1014.5
20260504180115 19 352 11.3 12.9 0.00 0.00 0.00 56 1014.3
20260504175612 20 28 11.3 12.9 0.00 0.00 0.00 55 1014.6
20260504175108 20 331 4.8 8.0 0.00 0.00 0.00 56 1014.4
20260504174607 20 299 6.4 11.3 0.00 0.00 0.00 57 1014.2
20260504174103 19 15 8.0 11.3 0.00 0.00 0.00 56 1014.5
20260504173600 19 359 8.0 12.9 0.00 0.00 0.00 57 1014.4
20260504173058 18 7 8.0 11.3 0.00 0.00 0.00 58 1014.5
20260504172553 18 339 11.3 14.5 0.00 0.00 0.00 57 1014.4
20260504172050 18 349 8.0 14.5 0.00 0.00 0.00 57 1014.4
20260504171547 19 22 12.9 12.9 0.00 0.00 0.00 57 1014.5
20260504171044 19 1 6.4 11.3 0.00 0.00 0.00 57 1014.5
20260504170539 18 354 8.0 9.7 0.00 0.00 0.00 56 1014.6
20260504150924 20 326 3.2 4.8 0.00 0.00 0.00 47 1013.9
20260504150420 20 193 0.0 3.2 0.00 0.00 0.00 46 1013.9
20260504140847 17 248 3.2 8.0 0.00 0.00 0.00 51 1013.5
20260504140343 16 240 4.8 4.8 0.00 0.00 0.00 52 1013.5
20260504130812 15 224 8.0 9.7 0.00 0.00 0.00 55 1013.1
20260504130308 15 217 8.0 11.3 0.00 0.00 0.00 55 1013.2
20260504120231 13 218 4.8 8.0 0.00 0.00 0.00 68 1013.0
20260504110659 13 196 3.2 3.2 0.00 0.00 0.00 69 1012.9
20260504110155 13 195 3.2 3.2 0.00 0.00 0.00 69 1013.0
20260504100119 14 192 1.6 3.2 0.00 0.00 0.00 59 1012.8